NSZ5260 ESGG-EGKK

Flight info

Callsign NSZ5260
Flight time 1h 47m
Altitude 38000
Route VADIN DCT LAPMA DCT ABINO DCT ATTUS DCT JUIST DCT BEDUM DCT SPY DCT GALSO Q63 ARREK Y4 TEBRA
Aircraft B738/M-SDE2E3FGHIRWXY/LB1

Departure

Time 2026-05-04 14:05
Airport Göteborg Landvetter Airport (ESGG)

Arrival

Time 2026-05-04 15:52
Airport London Gatwick Airport (EGKK)
Time Latitude Longitude Altitude Speed Heading
2026-05-04 13:04 57.66535 12.29099 515 ft 0 kts 116°
2026-05-04 13:51 57.66541 12.29075 515 ft 4 kts 118°
2026-05-04 13:51 57.66555 12.29033 515 ft 4 kts 128°
2026-05-04 13:51 57.66574 12.28997 515 ft 4 kts 149°
2026-05-04 13:51 57.66595 12.28986 515 ft 2 kts 204°
2026-05-04 13:52 57.66597 12.28988 515 ft 0 kts 206°
2026-05-04 13:58 57.66596 12.28986 515 ft 1 kts 211°
2026-05-04 13:59 57.66594 12.28963 515 ft 3 kts 284°
2026-05-04 13:59 57.66618 12.28915 515 ft 7 kts 313°
2026-05-04 13:59 57.66741 12.28911 515 ft 14 kts 26°
2026-05-04 14:00 57.66838 12.28999 515 ft 17 kts 26°
2026-05-04 14:00 57.67083 12.29222 515 ft 21 kts 26°
2026-05-04 14:00 57.67213 12.29339 515 ft 20 kts 27°
2026-05-04 14:01 57.67327 12.29444 515 ft 13 kts 26°
2026-05-04 14:01 57.67406 12.29468 515 ft 12 kts 324°
2026-05-04 14:01 57.67459 12.29275 514 ft 0 kts 278°
2026-05-04 14:03 57.67459 12.29271 514 ft 1 kts 277°
2026-05-04 14:03 57.67457 12.29170 513 ft 14 kts 263°
2026-05-04 14:03 57.67438 12.29032 514 ft 2 kts 207°
2026-05-04 14:04 57.67322 12.28926 514 ft 50 kts 206°
2026-05-04 14:04 57.66801 12.28450 512 ft 115 kts 206°
2026-05-04 14:04 57.65928 12.27672 629 ft 154 kts 207°
2026-05-04 14:05 57.63943 12.25884 2053 ft 155 kts 212°
2026-05-04 14:05 57.62937 12.24979 2578 ft 172 kts 212°
2026-05-04 14:05 57.61764 12.23922 2773 ft 199 kts 210°
2026-05-04 14:06 57.60357 12.23113 2931 ft 227 kts 192°
2026-05-04 14:06 57.58723 12.22893 3184 ft 245 kts 188°
2026-05-04 14:06 57.56962 12.22693 3526 ft 260 kts 188°
2026-05-04 14:06 57.55125 12.22467 4211 ft 266 kts 189°
2026-05-04 14:07 57.53286 12.22148 5009 ft 266 kts 192°
2026-05-04 14:07 57.51443 12.21761 5774 ft 267 kts 192°
2026-05-04 14:07 57.49578 12.21360 6505 ft 272 kts 192°
2026-05-04 14:07 57.47695 12.20959 7274 ft 273 kts 192°
2026-05-04 14:08 57.45804 12.20563 8046 ft 275 kts 192°
2026-05-04 14:08 57.43942 12.19888 8845 ft 268 kts 210°
2026-05-04 14:08 57.42444 12.17971 9674 ft 261 kts 226°
2026-05-04 14:08 57.41130 12.15618 10283 ft 270 kts 230°
2026-05-04 14:09 57.38302 12.10163 10659 ft 315 kts 230°
2026-05-04 14:09 57.36752 12.07190 11170 ft 324 kts 230°
2026-05-04 14:10 57.33590 12.01204 12614 ft 331 kts 229°
2026-05-04 14:10 57.31968 11.98156 13387 ft 334 kts 229°
2026-05-04 14:10 57.30329 11.95087 14130 ft 336 kts 229°
2026-05-04 14:10 57.28677 11.92002 14832 ft 340 kts 229°
2026-05-04 14:11 57.27002 11.88876 15548 ft 343 kts 229°
2026-05-04 14:11 57.23604 11.82552 16937 ft 351 kts 230°
2026-05-04 14:11 57.21875 11.79341 17623 ft 355 kts 230°
2026-05-04 14:12 57.20125 11.76093 18282 ft 358 kts 230°
2026-05-04 14:12 57.18361 11.72824 18858 ft 362 kts 230°
2026-05-04 14:12 57.14754 11.66214 20002 ft 371 kts 226°
2026-05-04 14:13 57.12553 11.63601 20537 ft 386 kts 209°
2026-05-04 14:13 57.09989 11.61952 21104 ft 393 kts 204°
2026-05-04 14:13 57.07364 11.60452 21647 ft 397 kts 203°
2026-05-04 14:13 57.04708 11.58964 22162 ft 401 kts 203°
2026-05-04 14:14 57.02033 11.57458 22686 ft 404 kts 203°
2026-05-04 14:14 56.96617 11.54363 23655 ft 411 kts 203°
2026-05-04 14:14 56.93879 11.52783 23858 ft 413 kts 203°
2026-05-04 14:15 56.88362 11.49591 24176 ft 420 kts 203°
2026-05-04 14:15 56.82774 11.46365 25128 ft 421 kts 202°
2026-05-04 14:16 56.77133 11.43117 25825 ft 429 kts 202°
2026-05-04 14:16 56.74271 11.41473 26171 ft 433 kts 202°
2026-05-04 14:17 56.68472 11.38151 26879 ft 439 kts 201°
2026-05-04 14:17 56.65572 11.36358 27198 ft 440 kts 207°
2026-05-04 14:17 56.60492 11.30349 27853 ft 436 kts 226°
2026-05-04 14:18 56.58428 11.26335 28127 ft 437 kts 232°
2026-05-04 14:18 56.54475 11.17866 28707 ft 443 kts 232°
2026-05-04 14:19 56.50458 11.09293 29287 ft 449 kts 232°
2026-05-04 14:19 56.48420 11.04994 29570 ft 452 kts 232°
2026-05-04 14:19 56.46358 11.00672 29860 ft 454 kts 232°
2026-05-04 14:19 56.44291 10.96358 30210 ft 454 kts 232°
2026-05-04 14:20 56.42222 10.92054 30639 ft 452 kts 232°
2026-05-04 14:20 56.40169 10.87794 31111 ft 448 kts 231°
2026-05-04 14:20 56.38151 10.83613 31520 ft 446 kts 231°
2026-05-04 14:21 56.34054 10.75138 32273 ft 443 kts 231°
2026-05-04 14:21 56.32053 10.71011 32671 ft 442 kts 231°
2026-05-04 14:21 56.30033 10.66850 33046 ft 440 kts 231°
2026-05-04 14:21 56.28018 10.62706 33384 ft 440 kts 231°
2026-05-04 14:22 56.26008 10.58578 33737 ft 439 kts 231°
2026-05-04 14:22 56.23998 10.54459 34071 ft 437 kts 231°
2026-05-04 14:22 56.21994 10.50359 34363 ft 436 kts 231°
2026-05-04 14:22 56.19991 10.46269 34644 ft 435 kts 231°
2026-05-04 14:23 56.15995 10.38128 35203 ft 434 kts 231°
2026-05-04 14:23 56.14001 10.34077 35459 ft 433 kts 231°
2026-05-04 14:23 56.12014 10.30047 35842 ft 429 kts 231°
2026-05-04 14:24 56.10041 10.26052 36088 ft 429 kts 231°
2026-05-04 14:24 56.06056 10.17999 36375 ft 433 kts 231°
2026-05-04 14:24 56.04058 10.13973 36697 ft 430 kts 231°
2026-05-04 14:25 56.02075 10.09983 37010 ft 428 kts 231°
2026-05-04 14:25 55.98116 10.02048 37463 ft 428 kts 229°
2026-05-04 14:25 55.95949 9.98381 37685 ft 431 kts 221°
2026-05-04 14:26 55.93486 9.95325 37931 ft 432 kts 216°
2026-05-04 14:26 55.90948 9.92405 37927 ft 436 kts 216°
2026-05-04 14:26 55.85862 9.86587 37935 ft 433 kts 216°
2026-05-04 14:27 55.80826 9.80790 37950 ft 429 kts 216°
2026-05-04 14:27 55.75875 9.75068 37949 ft 426 kts 216°
2026-05-04 14:28 55.70917 9.69341 37954 ft 425 kts 216°
2026-05-04 14:28 55.65959 9.63630 37957 ft 425 kts 216°
2026-05-04 14:29 55.56005 9.52220 37962 ft 428 kts 216°
2026-05-04 14:30 55.50989 9.46497 37971 ft 430 kts 216°
2026-05-04 14:31 55.43408 9.37884 37968 ft 434 kts 216°
2026-05-04 14:32 55.33218 9.26369 37997 ft 436 kts 216°
2026-05-04 14:32 55.28103 9.20615 37990 ft 437 kts 216°
2026-05-04 14:33 55.22992 9.14884 37989 ft 436 kts 216°
2026-05-04 14:33 55.17884 9.09175 37960 ft 435 kts 216°
2026-05-04 14:34 55.12797 9.03505 37984 ft 433 kts 215°
2026-05-04 14:34 55.07729 8.97873 37994 ft 431 kts 215°
2026-05-04 14:35 55.02674 8.92273 37999 ft 430 kts 215°
2026-05-04 14:35 54.97667 8.86740 37997 ft 429 kts 215°
2026-05-04 14:36 54.92630 8.81191 37987 ft 428 kts 215°
2026-05-04 14:36 54.87762 8.75310 38020 ft 424 kts 222°
2026-05-04 14:37 54.83254 8.68723 38006 ft 424 kts 223°
2026-05-04 14:37 54.78755 8.62085 38007 ft 425 kts 223°
2026-05-04 14:38 54.74221 8.55486 38010 ft 426 kts 222°
2026-05-04 14:38 54.69659 8.48912 38001 ft 427 kts 222°
2026-05-04 14:39 54.65855 8.43459 38015 ft 428 kts 222°
2026-05-04 14:39 54.61259 8.36889 38010 ft 429 kts 222°
2026-05-04 14:40 54.53596 8.25978 38015 ft 430 kts 222°
2026-05-04 14:40 54.49727 8.20490 38013 ft 431 kts 222°
2026-05-04 14:41 54.45098 8.13941 38007 ft 430 kts 221°
2026-05-04 14:42 54.35861 8.00933 38021 ft 429 kts 221°
2026-05-04 14:42 54.31243 7.94458 38008 ft 429 kts 221°
2026-05-04 14:43 54.26627 7.88005 38009 ft 428 kts 221°
2026-05-04 14:43 54.22011 7.81571 38002 ft 427 kts 221°
2026-05-04 14:44 54.17437 7.75216 38007 ft 426 kts 221°
2026-05-04 14:44 54.12837 7.68843 38012 ft 426 kts 221°
2026-05-04 14:45 54.08238 7.62489 38011 ft 425 kts 221°
2026-05-04 14:45 54.03636 7.56152 38011 ft 425 kts 221°
2026-05-04 14:46 53.99038 7.49836 38006 ft 425 kts 221°
2026-05-04 14:46 53.94442 7.43544 38008 ft 424 kts 221°
2026-05-04 14:47 53.89842 7.37262 38011 ft 424 kts 221°
2026-05-04 14:47 53.85245 7.31003 38008 ft 424 kts 220°
2026-05-04 14:48 53.80642 7.24755 38014 ft 424 kts 220°
2026-05-04 14:48 53.76035 7.18518 38008 ft 424 kts 220°
2026-05-04 14:49 53.71428 7.12300 38014 ft 424 kts 220°
2026-05-04 14:49 53.66815 7.06092 38018 ft 424 kts 220°
2026-05-04 14:50 53.62168 6.99853 38014 ft 424 kts 220°
2026-05-04 14:50 53.57578 6.93710 38011 ft 424 kts 220°
2026-05-04 14:51 53.53125 6.87224 38003 ft 423 kts 225°
2026-05-04 14:51 53.48821 6.80494 38015 ft 422 kts 225°
2026-05-04 14:52 53.44510 6.73801 38015 ft 422 kts 225°
2026-05-04 14:52 53.40182 6.67143 38009 ft 422 kts 224°
2026-05-04 14:53 53.35845 6.60498 38005 ft 422 kts 224°
2026-05-04 14:53 53.32061 6.53039 38021 ft 421 kts 234°
2026-05-04 14:54 53.28562 6.45186 38021 ft 421 kts 234°
2026-05-04 14:54 53.25042 6.37346 38006 ft 422 kts 233°
2026-05-04 14:55 53.21504 6.29540 38011 ft 422 kts 233°
2026-05-04 14:55 53.17947 6.21737 38006 ft 422 kts 233°
2026-05-04 14:56 53.14385 6.13948 38019 ft 423 kts 233°
2026-05-04 14:56 53.10811 6.06157 38015 ft 424 kts 233°
2026-05-04 14:57 53.07228 5.98369 38004 ft 424 kts 233°
2026-05-04 14:57 53.03634 5.90581 38012 ft 425 kts 233°
2026-05-04 14:58 53.00029 5.82794 38000 ft 426 kts 233°
2026-05-04 14:58 52.96411 5.75003 38011 ft 426 kts 233°
2026-05-04 14:59 52.92786 5.67220 38002 ft 426 kts 233°
2026-05-04 15:00 52.87338 5.55568 37986 ft 426 kts 232°
2026-05-04 15:00 52.83699 5.47816 37991 ft 426 kts 232°
2026-05-04 15:01 52.78233 5.36214 37991 ft 426 kts 232°
2026-05-04 15:01 52.74603 5.28540 37983 ft 426 kts 232°
2026-05-04 15:02 52.70945 5.20830 37975 ft 427 kts 232°
2026-05-04 15:02 52.67285 5.13136 37981 ft 427 kts 232°
2026-05-04 15:03 52.63618 5.05451 37989 ft 426 kts 232°
2026-05-04 15:03 52.59947 4.97783 37985 ft 426 kts 232°
2026-05-04 15:04 52.56282 4.90145 37988 ft 425 kts 232°
2026-05-04 15:04 52.52617 4.82498 37983 ft 426 kts 232°
2026-05-04 15:05 52.49020 4.74780 37971 ft 426 kts 232°
2026-05-04 15:05 52.45431 4.67050 37979 ft 426 kts 232°
2026-05-04 15:06 52.41834 4.59344 37989 ft 425 kts 232°
2026-05-04 15:07 52.36421 4.47824 37987 ft 425 kts 231°
2026-05-04 15:07 52.32811 4.40171 37986 ft 425 kts 231°
2026-05-04 15:08 52.29200 4.32540 37979 ft 424 kts 231°
2026-05-04 15:08 52.25585 4.24922 37984 ft 424 kts 231°
2026-05-04 15:09 52.21992 4.17374 37979 ft 424 kts 231°
2026-05-04 15:09 52.18372 4.09790 37980 ft 424 kts 231°
2026-05-04 15:10 52.12938 3.98450 37991 ft 423 kts 231°
2026-05-04 15:11 52.07488 3.87127 37999 ft 424 kts 231°
2026-05-04 15:11 52.03840 3.79576 38000 ft 425 kts 231°
2026-05-04 15:12 52.00177 3.72014 37991 ft 426 kts 231°
2026-05-04 15:12 51.96500 3.64447 38008 ft 427 kts 230°
2026-05-04 15:13 51.92813 3.56881 38012 ft 428 kts 230°
2026-05-04 15:13 51.89112 3.49309 38010 ft 429 kts 230°
2026-05-04 15:14 51.85402 3.41740 38014 ft 430 kts 230°
2026-05-04 15:14 51.81668 3.34145 37589 ft 437 kts 230°
2026-05-04 15:14 51.79777 3.30304 37057 ft 434 kts 230°
2026-05-04 15:15 51.77905 3.26509 36486 ft 431 kts 230°
2026-05-04 15:15 51.76052 3.22719 35861 ft 429 kts 232°
2026-05-04 15:15 51.74510 3.18605 35200 ft 430 kts 242°
2026-05-04 15:16 51.72566 3.09541 33892 ft 434 kts 256°
2026-05-04 15:16 51.72129 3.04720 33105 ft 435 kts 258°
2026-05-04 15:16 51.71359 2.95063 31720 ft 432 kts 258°
2026-05-04 15:17 51.70968 2.90295 31219 ft 426 kts 258°
2026-05-04 15:17 51.70161 2.80916 30179 ft 419 kts 258°
2026-05-04 15:17 51.69752 2.76284 29607 ft 416 kts 258°
2026-05-04 15:18 51.69345 2.71689 29054 ft 411 kts 258°
2026-05-04 15:18 51.68942 2.67160 28538 ft 406 kts 259°
2026-05-04 15:18 51.68542 2.62680 28009 ft 402 kts 259°
2026-05-04 15:19 51.67750 2.53860 26983 ft 394 kts 259°
2026-05-04 15:19 51.67356 2.49516 26499 ft 390 kts 259°
2026-05-04 15:19 51.66560 2.40944 25526 ft 384 kts 259°
2026-05-04 15:20 51.66162 2.36714 25037 ft 381 kts 259°
2026-05-04 15:20 51.65764 2.32501 24532 ft 379 kts 259°
2026-05-04 15:20 51.65368 2.28312 24058 ft 377 kts 259°
2026-05-04 15:20 51.64974 2.24152 23587 ft 375 kts 259°
2026-05-04 15:21 51.64581 2.20011 23032 ft 373 kts 259°
2026-05-04 15:21 51.64189 2.15902 22508 ft 370 kts 259°
2026-05-04 15:21 51.63420 2.07776 22016 ft 368 kts 260°
2026-05-04 15:22 51.63048 2.03636 22012 ft 379 kts 260°
2026-05-04 15:22 51.62668 1.99404 22004 ft 385 kts 260°
2026-05-04 15:22 51.61886 1.90843 21161 ft 385 kts 260°
2026-05-04 15:23 51.61364 1.86648 20648 ft 380 kts 251°
2026-05-04 15:23 51.60337 1.82769 20177 ft 376 kts 240°
2026-05-04 15:23 51.58913 1.79265 19697 ft 373 kts 230°
2026-05-04 15:23 51.57204 1.76150 19238 ft 371 kts 227°
2026-05-04 15:24 51.53779 1.70052 18295 ft 369 kts 227°
2026-05-04 15:24 51.50391 1.63907 17267 ft 364 kts 229°
2026-05-04 15:25 51.48932 1.60616 16810 ft 360 kts 239°
2026-05-04 15:25 51.47864 1.57003 16334 ft 358 kts 248°
2026-05-04 15:25 51.47031 1.53270 15887 ft 354 kts 249°
2026-05-04 15:26 51.45649 1.47085 15136 ft 349 kts 249°
2026-05-04 15:26 51.44817 1.43453 14699 ft 346 kts 249°
2026-05-04 15:26 51.42519 1.36810 13951 ft 337 kts 229°
2026-05-04 15:27 51.40833 1.34264 13760 ft 332 kts 218°
2026-05-04 15:27 51.37070 1.29825 13391 ft 344 kts 216°
2026-05-04 15:28 51.33207 1.25330 13009 ft 342 kts 216°
2026-05-04 15:28 51.31285 1.23081 12823 ft 342 kts 216°
2026-05-04 15:28 51.27463 1.18594 12467 ft 340 kts 216°
2026-05-04 15:29 51.25558 1.16355 12293 ft 340 kts 216°
2026-05-04 15:30 51.17995 1.07476 11585 ft 337 kts 216°
2026-05-04 15:30 51.12345 1.00864 11064 ft 334 kts 216°
2026-05-04 15:31 51.08612 0.96508 10705 ft 329 kts 216°
2026-05-04 15:31 51.06804 0.94379 10538 ft 318 kts 219°
2026-05-04 15:32 51.03511 0.85935 10061 ft 290 kts 245°
2026-05-04 15:32 51.01877 0.80304 9767 ft 274 kts 245°
2026-05-04 15:33 51.00286 0.74933 9481 ft 267 kts 244°
2026-05-04 15:34 50.98846 0.70127 9227 ft 268 kts 244°
2026-05-04 15:34 50.98037 0.67433 9098 ft 270 kts 244°
2026-05-04 15:34 50.96412 0.62035 8808 ft 271 kts 245°
2026-05-04 15:35 50.94778 0.56618 8518 ft 275 kts 244°
2026-05-04 15:35 50.93952 0.53880 8367 ft 274 kts 245°
2026-05-04 15:35 50.93134 0.51177 8221 ft 270 kts 244°
2026-05-04 15:36 50.91565 0.45860 7933 ft 265 kts 253°
2026-05-04 15:36 50.91461 0.43024 7814 ft 262 kts 280°
2026-05-04 15:36 50.91899 0.40231 7690 ft 261 kts 287°
2026-05-04 15:37 50.92434 0.37479 7550 ft 261 kts 287°
2026-05-04 15:37 50.92968 0.34724 7411 ft 261 kts 287°
2026-05-04 15:37 50.93480 0.31998 7265 ft 255 kts 287°
2026-05-04 15:37 50.93972 0.29339 7126 ft 247 kts 287°
2026-05-04 15:38 50.94444 0.26796 6982 ft 235 kts 289°
2026-05-04 15:38 50.95243 0.24582 6633 ft 231 kts 310°
2026-05-04 15:38 50.96267 0.22629 6227 ft 231 kts 309°
2026-05-04 15:38 50.97269 0.20640 5802 ft 232 kts 309°
2026-05-04 15:39 50.98274 0.18621 5389 ft 236 kts 309°
2026-05-04 15:39 50.99296 0.16559 4963 ft 238 kts 309°
2026-05-04 15:39 51.01335 0.12406 4089 ft 238 kts 305°
2026-05-04 15:40 51.01843 0.09971 3991 ft 231 kts 276°
2026-05-04 15:40 51.01943 0.07442 3889 ft 229 kts 275°
2026-05-04 15:40 51.02042 0.04907 3836 ft 230 kts 275°
2026-05-04 15:40 51.02143 0.02367 3785 ft 231 kts 275°
2026-05-04 15:41 51.02247 -0.00188 3728 ft 232 kts 275°
2026-05-04 15:41 51.02352 -0.02740 3671 ft 232 kts 275°
2026-05-04 15:41 51.02458 -0.05309 3617 ft 233 kts 275°
2026-05-04 15:41 51.02565 -0.07884 3560 ft 234 kts 275°
2026-05-04 15:42 51.02673 -0.10472 3512 ft 235 kts 275°
2026-05-04 15:42 51.02780 -0.13035 3454 ft 236 kts 275°
2026-05-04 15:42 51.02889 -0.15675 3392 ft 236 kts 275°
2026-05-04 15:42 51.02996 -0.18237 3336 ft 234 kts 275°
2026-05-04 15:43 51.03102 -0.20810 3276 ft 233 kts 275°
2026-05-04 15:43 51.03208 -0.23371 3234 ft 232 kts 275°
2026-05-04 15:43 51.03314 -0.25931 3179 ft 233 kts 274°
2026-05-04 15:43 51.03419 -0.28505 3082 ft 235 kts 274°
2026-05-04 15:44 51.03523 -0.31092 2991 ft 233 kts 274°
2026-05-04 15:44 51.03626 -0.33646 2973 ft 230 kts 274°
2026-05-04 15:44 51.03728 -0.36175 2979 ft 230 kts 274°
2026-05-04 15:44 51.03829 -0.38703 2981 ft 226 kts 274°
2026-05-04 15:45 51.03924 -0.41097 2982 ft 209 kts 274°
2026-05-04 15:45 51.04011 -0.43318 2975 ft 197 kts 274°
2026-05-04 15:45 51.04096 -0.45494 2985 ft 201 kts 274°
2026-05-04 15:45 51.04188 -0.47842 2981 ft 219 kts 274°
2026-05-04 15:46 51.04369 -0.50218 2958 ft 214 kts 289°
2026-05-04 15:46 51.05120 -0.52178 2970 ft 206 kts 318°
2026-05-04 15:46 51.06292 -0.53305 2964 ft 192 kts 344°
2026-05-04 15:46 51.07587 -0.53522 2983 ft 188 kts
2026-05-04 15:47 51.08825 -0.52930 2987 ft 186 kts 29°
2026-05-04 15:47 51.09820 -0.51652 2987 ft 184 kts 49°
2026-05-04 15:47 51.10482 -0.49943 2967 ft 182 kts 69°
2026-05-04 15:47 51.10830 -0.48020 2981 ft 182 kts 75°
2026-05-04 15:48 51.11127 -0.46069 2974 ft 181 kts 76°
2026-05-04 15:48 51.11396 -0.44133 2966 ft 178 kts 77°
2026-05-04 15:48 51.11919 -0.40278 2687 ft 178 kts 77°
2026-05-04 15:49 51.12175 -0.38378 2470 ft 173 kts 77°
2026-05-04 15:49 51.12424 -0.36539 2245 ft 167 kts 77°
2026-05-04 15:49 51.12664 -0.34774 2035 ft 157 kts 78°
2026-05-04 15:49 51.12887 -0.33133 1806 ft 148 kts 78°
2026-05-04 15:50 51.13103 -0.31547 1606 ft 145 kts 78°
2026-05-04 15:50 51.13317 -0.29974 1410 ft 145 kts 78°
2026-05-04 15:50 51.13530 -0.28404 1217 ft 146 kts 78°
2026-05-04 15:50 51.13737 -0.26819 1026 ft 146 kts 79°
2026-05-04 15:51 51.13950 -0.25298 812 ft 138 kts 77°
2026-05-04 15:51 51.14158 -0.23765 637 ft 147 kts 77°
2026-05-04 15:51 51.14382 -0.22159 425 ft 149 kts 77°
2026-05-04 15:51 51.14593 -0.20604 228 ft 138 kts 77°
2026-05-04 15:52 51.14785 -0.19241 213 ft 114 kts 78°
2026-05-04 15:52 51.14927 -0.18191 202 ft 75 kts 78°
2026-05-04 15:52 51.15017 -0.17536 211 ft 56 kts 77°
2026-05-04 15:52 51.15090 -0.17155 206 ft 16 kts 30°
2026-05-04 15:53 51.15169 -0.17156 204 ft 0 kts 351°
2026-05-04 15:53 51.15170 -0.17156 204 ft 0 kts 351°
2026-05-04 15:55 51.15177 -0.17158 212 ft 3 kts 349°
2026-05-04 15:55 51.15215 -0.17171 203 ft 9 kts 348°
2026-05-04 15:55 51.15277 -0.17208 211 ft 12 kts 331°
2026-05-04 15:56 51.15360 -0.17239 203 ft 8 kts
2026-05-04 15:56 51.15403 -0.17146 203 ft 14 kts 68°
2026-05-04 15:56 51.15431 -0.16964 202 ft 20 kts 77°
2026-05-04 15:56 51.15453 -0.16769 208 ft 14 kts 96°
2026-05-04 15:57 51.15457 -0.16611 203 ft 15 kts 77°
2026-05-04 15:57 51.15472 -0.16534 202 ft 1 kts 49°
2026-05-04 15:57 51.15478 -0.16527 206 ft 1 kts 36°
2026-05-04 15:57 51.15480 -0.16525 205 ft 0 kts 33°
2026-05-04 15:58 51.15501 -0.16511 201 ft 6 kts
2026-05-04 15:58 51.15533 -0.16518 207 ft 3 kts 349°
2026-05-04 15:58 51.15542 -0.16521 204 ft 0 kts 349°